TimeEST,TemperatureF,Dew PointF,Humidity,Sea Level PressureIn,VisibilityMPH,Wind Direction,Wind SpeedMPH,Gust SpeedMPH,PrecipitationIn,Events,Conditions,WindDirDegrees,DateUTC
12:53 AM,41.0,30.0,65,29.29,10.0,WSW,11.5,17.3,N/A,,Overcast,240,2012-12-22 05:53:00
1:53 AM,41.0,30.0,65,29.30,10.0,WSW,10.4,-,N/A,,Overcast,250,2012-12-22 06:53:00
2:53 AM,41.0,28.9,62,29.31,10.0,WSW,8.1,18.4,N/A,,Overcast,250,2012-12-22 07:53:00
4:53 AM,39.0,30.0,70,29.30,10.0,WSW,8.1,-,N/A,,Clear,250,2012-12-22 09:53:00
5:53 AM,39.0,30.9,73,29.32,10.0,WSW,8.1,-,N/A,,Clear,250,2012-12-22 10:53:00
6:53 AM,39.9,34.0,79,29.34,10.0,West,10.4,20.7,N/A,,Overcast,280,2012-12-22 11:53:00
7:53 AM,37.0,35.1,93,29.36,7.0,West,12.7,19.6,0.05,Rain,Light Rain,270,2012-12-22 12:53:00
8:00 AM,37.4,35.6,93,29.36,5.0,West,11.5,19.6,0.01,Rain,Rain,260,2012-12-22 13:00:00
8:53 AM,37.9,34.0,86,29.38,10.0,West,12.7,19.6,0.02,Rain,Light Rain,280,2012-12-22 13:53:00
9:53 AM,39.0,35.1,86,29.40,10.0,West,9.2,21.9,0.00,,Overcast,280,2012-12-22 14:53:00
10:53 AM,39.0,30.9,73,29.39,10.0,WNW,15.0,21.9,N/A,,Overcast,300,2012-12-22 15:53:00
11:11 AM,39.2,28.4,65,29.39,10.0,West,11.5,23.0,N/A,,Overcast,280,2012-12-22 16:11:00
11:30 AM,37.4,28.4,70,29.39,10.0,WNW,10.4,19.6,N/A,,Overcast,290,2012-12-22 16:30:00
11:40 AM,37.4,26.6,65,29.39,10.0,West,16.1,26.5,N/A,,Overcast,280,2012-12-22 16:40:00
11:53 AM,37.9,25.0,60,29.39,10.0,West,12.7,24.2,N/A,,Overcast,280,2012-12-22 16:53:00
12:53 PM,37.9,24.1,57,29.39,10.0,WNW,16.1,31.1,N/A,,Overcast,290,2012-12-22 17:53:00
1:53 PM,37.9,21.9,53,29.42,10.0,West,16.1,32.2,N/A,,Overcast,280,2012-12-22 18:53:00
2:53 PM,37.9,19.0,47,29.44,10.0,West,24.2,34.5,N/A,,Overcast,280,2012-12-22 19:53:00
3:53 PM,35.1,19.9,54,29.47,10.0,WNW,19.6,31.1,N/A,,Overcast,290,2012-12-22 20:53:00
4:53 PM,35.1,19.0,52,29.51,10.0,WNW,19.6,26.5,N/A,,Mostly Cloudy,300,2012-12-22 21:53:00
5:53 PM,33.1,18.0,54,29.55,10.0,WNW,19.6,29.9,N/A,,Scattered Clouds,300,2012-12-22 22:53:00
6:53 PM,33.1,18.0,54,29.57,10.0,WNW,20.7,32.2,N/A,,Overcast,290,2012-12-22 23:53:00
7:53 PM,33.1,19.0,56,29.60,10.0,WNW,12.7,21.9,N/A,,Overcast,300,2012-12-23 00:53:00
8:53 PM,33.1,19.0,56,29.62,10.0,NW,19.6,28.8,N/A,,Overcast,310,2012-12-23 01:53:00
9:53 PM,33.1,19.9,59,29.63,10.0,WNW,20.7,29.9,N/A,,Mostly Cloudy,300,2012-12-23 02:53:00
10:53 PM,33.1,19.9,59,29.65,10.0,NW,24.2,34.5,N/A,,Partly Cloudy,310,2012-12-23 03:53:00
11:53 PM,33.1,19.0,56,29.67,10.0,WNW,16.1,36.8,N/A,,Clear,290,2012-12-23 04:53:00